RH
64 74 74 70 74 72 69 68 62 62 62 61 59 68 72 84 80 85 93 93 92 93
61 59 61 57 59 61 60 45 60 62 63 63 61 66 67 77 74 83 87 93 90 87
52 50 51 53 53 52 52 53 54 55 57 59 60 68 71 76 74 75 82 77 81 81
51 51 53 55 56 56 52 52 50 51 52 53 54 58 67 69 70 72 74 75 76 76
52 53 56 58 58 55 53 53 54 52 54 55 56 56 64 65 69 72 73 73 76 74
55 56 58 60 58 53 56 57 56 56 59 60 60 58 55 63 68 71 72 74 74 73
56 57 59 57 54 54 57 57 58 59 61 63 63 59 60 67 70 72 71 73 73 75
54 57 56 53 56 57 59 59 62 63 65 68 62 49 68 71 73 75 75 73 71 72
56 58 56 57 60 61 63 63 65 68 70 71 54 59 57 59 73 74 78 77 78 77
58 57 58 60 62 62 63 67 67 70 72 74 72 58 55 56 67 72 75 77 80 74
61 59 60 63 64 64 66 66 70 72 75 77 64 60 58 59 76 80 79 78 82 84
62 60 60 62 65 67 69 72 75 75 77 76 75 64 61 66 82 78 79 76 79 79
64 62 63 64 67 69 72 66 74 69 74 69 75 68 65 66 81 84 78 80 78 72
62 62 63 67 69 71 74 71 78 70 73 74 74 83 69 66 73 78 78 79 76 76
Wind_Speed
5 3 4 5 4 4 3 3 5 4 4 5 5 4 5 4 4 4 3 4 4 4
3 4 3 4 4 3 5 5 6 6 6 6 6 5 5 4 4 4 4 5 5 3
2 3 3 3 4 3 3 4 5 6 6 7 7 6 6 5 5 6 4 4 5 5
1 2 2 2 2 3 3 4 5 5 5 5 5 5 3 4 3 4 4 4 5 5
3 1 1 1 2 3 4 3 4 5 5 5 5 5 3 5 4 4 5 5 5 6
4 3 2 1 1 3 3 4 4 4 5 5 5 5 5 4 4 3 4 5 5 6
5 4 3 2 0 3 4 4 5 5 5 5 6 6 6 5 5 4 4 4 5 5
6 4 3 1 1 2 2 2 3 3 5 5 5 4 5 4 4 4 5 5 5 5
5 4 4 2 2 1 2 3 2 3 3 4 3 9 10 8 3 4 4 4 5 5
5 5 3 1 1 2 3 2 3 4 4 5 5 9 10 11 2 3 4 5 5 5
5 4 3 1 2 3 2 3 3 3 4 4 4 10 10 11 3 3 5 5 5 5
6 5 3 3 4 3 3 2 2 3 4 4 5 9 12 10 4 5 6 5 6 6
7 6 5 4 4 3 2 4 3 4 3 6 5 9 11 9 3 4 4 6 5 13
5 5 4 3 2 3 4 3 4 4 4 5 6 7 12 12 4 4 5 4 5 4
Wind_Direction
37 40 37 30 20 11 4 7 7 11 24 25 21 27 23 31 30 351 334 326 346 341
52 68 70 48 31 12 2 357 4 6 10 11 19 30 32 43 26 10 359 0 341 316
32 64 66 57 40 21 354 356 359 359 3 4 7 12 22 16 12 18 357 358 341 329
102 72 65 55 10 358 349 357 2 357 357 1 357 358 13 359 23 19 357 348 347 324
174 168 99 0 342 354 355 349 351 355 357 351 346 343 341 346 344 3 358 343 342 329
197 191 199 253 331 345 347 348 355 3 358 345 334 336 333 320 318 335 337 337 335 321
208 200 200 193 2 4 3 0 354 349 339 336 325 322 320 322 326 321 319 323 324 313
202 187 165 102 1 330 341 327 306 323 334 331 319 309 306 310 302 286 304 319 324 320
187 169 178 194 227 273 287 294 310 322 312 319 313 311 327 328 320 306 291 292 305 303
185 176 194 214 277 295 297 309 299 303 319 317 311 323 330 327 14 334 310 305 304 306
173 181 199 235 285 284 265 278 293 301 314 315 308 328 329 330 6 324 302 294 291 290
177 186 205 248 258 256 245 282 271 280 297 303 299 323 324 326 329 311 305 302 302 300
173 181 202 229 245 243 232 253 259 280 278 293 305 313 315 317 291 292 291 291 278 300
170 188 205 218 210 236 256 274 283 288 300 285 273 284 304 312 293 269 279 271 286 278